Location: Ariel
(45.9570°N, 122.5700°W)
Time: 04:11:18
(UTC-07:00)

Transit 4A - Pass Details

Date: 26 July 2019
Orbit: 863 x 981 km, 66.8° (Epoch: 20 August)

Event Time Altitude Azimuth Distance (km) Brightness Sun altitude
Rises 07:11:54 0° 324° (NW) 3,689 10.8 13.0°
Reaches altitude 10° 07:16:04 10° 349° (N) 2,727 10.4 13.7°
Maximum altitude 07:19:10 14° 19° (NNE) 2,445 10.7 14.2°
Drops below altitude 10° 07:22:15 10° 48° (NE) 2,696 11.6 14.7°
Sets 07:26:19 0° 74° (ENE) 3,614 12.9 15.4°
